Location: �perlecques
(50.8057°N, 2.1521°E)
Time: 13:03:27
(UTC+00:00)

VELOX 1 - Pass Details

Date: 27 September 2021
Orbit: 626 x 643 km, 98.3° (Epoch: 16 October)

Event Time Altitude Azimuth Distance (km) Brightness Sun altitude
Exits shadow 01:50:17 12° 94° (E) 1,886 ? -34.0°
Maximum altitude 01:52:41 18° 58° (ENE) 1,573 ? -33.7°
Drops below altitude 10° 01:55:35 10° 16° (NNE) 2,018 ? -33.4°
Sets 01:58:22 0° 358° (N) 2,929 ? -33.1°
